DW3800 Weather Reports


time (UTC)temp
C
wind
direction
speed
KPH
gust
KPH
rain 1hr
cm
rain 24hr
cm
rain mn
cm
humidity
%
barometer
mb
20210122054826 -12 293 0.0 8.0 0.00 0.00 0.00 67 1016.6
20210122054325 -12 315 0.0 0.0 0.00 0.00 0.00 67 1016.6
20210122053824 -12 315 0.0 0.0 0.00 0.00 0.00 66 1016.6
20210122052823 -12 293 0.0 9.7 0.00 0.00 0.00 66 1016.3
20210122051825 -12 320 4.8 8.0 0.00 0.00 0.00 66 1016.3
20210122050820 -12 315 0.0 6.4 0.00 0.00 0.00 66 1015.9
20210122050323 -12 299 4.8 11.3 0.00 0.00 0.00 66 1015.9
20210122045317 -12 293 11.3 11.3 0.00 0.00 0.00 66 1015.9
20210122044817 -12 315 0.0 0.0 0.00 0.00 0.00 66 1015.9
20210122044316 -12 315 0.0 8.0 0.00 0.00 0.00 66 1015.9
20210122043317 -12 338 19.3 19.3 0.00 0.00 0.00 65 1015.6
20210122042813 -11 315 9.7 9.7 0.00 0.00 0.00 65 1015.6
20210122042313 -11 354 4.8 8.0 0.00 0.00 0.00 65 1015.6
20210122035308 -11 293 3.2 4.8 0.00 0.00 0.00 65 1014.9
20210122033811 -11 315 0.0 9.7 0.00 0.00 0.00 64 1014.9
20210122031805 -10 338 3.2 3.2 0.00 0.00 0.00 64 1014.9
20210122030803 -10 293 8.0 8.0 0.00 0.00 0.00 64 1014.6
20210122025801 -10 315 0.0 3.2 0.00 0.00 0.00 64 1014.2
20210122024800 -10 0 4.8 12.9 0.00 0.00 0.00 63 1014.2
20210122023758 -10 338 0.0 0.0 0.00 0.00 0.00 64 1014.2
20210122023257 -10 0 0.0 14.5 0.00 0.00 0.00 64 1014.2
20210122022757 -10 315 0.0 14.5 0.00 0.00 0.00 64 1014.2
20210122021755 -10 293 0.0 1.6 0.00 0.00 0.00 63 1013.9
20210122020754 -9 0 0.0 0.0 0.00 0.00 0.00 63 1013.9
20210122020301 -9 293 0.0 0.0 0.00 0.00 0.00 63 1013.9
20210122015754 -9 270 0.0 0.0 0.00 0.00 0.00 63 1013.9
20210122014756 -9 338 0.0 8.0 0.00 0.00 0.00 62 1013.5
20210122013749 -8 315 0.0 8.0 0.00 0.00 0.00 62 1013.2
20210122011246 -8 270 0.0 9.7 0.00 0.00 0.00 60 1012.5
20210122010745 -8 270 6.4 9.7 0.00 0.00 0.00 60 1012.5
20210122004746 -7 327 8.0 8.0 0.00 0.00 0.00 59 1012.2
20210122004241 -7 283 3.2 11.3 0.00 0.00 0.00 58 1011.9
20210122003740 -7 315 0.0 11.3 0.00 0.00 0.00 58 1011.9
20210122002242 -7 293 11.3 16.1 0.00 0.00 0.00 58 1011.5
20210122001738 -7 342 11.3 16.1 0.00 0.00 0.00 58 1011.5
20210122001237 -7 328 6.4 9.7 0.00 0.00 0.00 58 1011.2
20210122000736 -7 315 0.0 8.0 0.00 0.00 0.00 58 1011.2
20210121235740 -6 293 0.0 11.3 0.00 0.00 0.00 58 1011.2
20210121234734 -6 315 6.4 14.5 0.00 0.00 0.00 57 1010.8
20210121233733 -6 337 3.2 12.9 0.00 0.00 0.00 57 1010.5
20210121232730 -6 315 9.7 9.7 0.00 0.00 0.00 57 1010.5
20210121232231 -6 338 4.8 4.8 0.00 0.00 0.00 56 1010.2
20210121231729 -6 270 0.0 6.4 0.00 0.00 0.00 56 1010.2
20210121231229 -6 315 0.0 6.4 0.00 0.00 0.00 55 1009.8
20210121225226 -5 270 9.7 11.3 0.00 0.00 0.00 54 1009.5
20210121224726 -5 314 6.4 14.5 0.00 0.00 0.00 54 1009.5
20210121224225 -5 338 14.5 14.5 0.00 0.00 0.00 54 1009.1
20210121222722 -3 320 8.0 9.7 0.00 0.00 0.00 53 1008.8
20210121221723 -3 325 11.3 12.9 0.00 0.00 0.00 53 1008.8
20210121220721 -3 248 1.6 12.9 0.00 0.00 0.00 52 1008.5
20210121220220 -2 297 6.4 12.9 0.00 0.00 0.00 52 1008.5
20210121215717 -2 352 8.0 11.3 0.00 0.00 0.00 53 1008.5
20210121214716 -2 338 14.5 14.5 0.00 0.00 0.00 52 1008.1
20210121212713 -1 338 12.9 12.9 0.00 0.00 0.00 53 1007.5
20210121212212 -1 0 4.8 8.0 0.00 0.00 0.00 53 1007.5
20210121210713 0 293 12.9 12.9 0.00 0.00 0.00 52 1007.1
20210121210241 0 350 9.7 11.3 0.00 0.00 0.00 52 1006.8
20210121205708 0 293 4.8 14.5 0.00 0.00 0.00 52 1006.8
20210121204707 0 327 11.3 14.5 0.00 0.00 0.00 53 1006.4
20210121204209 1 293 11.3 11.3 0.00 0.00 0.00 53 1006.1
20210121201706 1 322 9.7 14.5 0.00 0.00 0.00 58 1005.8
20210121200701 1 215 6.4 11.3 0.00 0.00 0.00 59 1005.4
20210121195701 1 293 11.3 14.5 0.00 0.00 0.00 60 1005.4
20210121194659 1 315 6.4 17.7 0.00 0.00 0.00 63 1005.4
20210121194158 0 270 6.4 17.7 0.00 0.00 0.00 63 1005.1
20210121193657 0 296 8.0 11.3 0.00 0.00 0.00 64 1005.1
20210121193157 0 0 0.0 14.5 0.00 0.00 0.00 63 1005.4
20210121192156 0 263 4.8 20.9 0.00 0.00 0.00 62 1005.1
20210121191654 0 285 9.7 17.7 0.00 0.00 0.00 62 1005.1
20210121191154 0 267 8.0 12.9 0.00 0.00 0.00 62 1005.1
20210121190653 1 315 3.2 16.1 0.00 0.00 0.00 62 1005.1
20210121190152 1 341 9.7 16.1 0.00 0.00 0.00 62 1005.1
20210121185651 1 315 6.4 16.1 0.00 0.00 0.00 62 1005.1
20210121183151 1 315 0.0 16.1 0.00 0.00 0.00 65 1004.7
20210121181146 1 318 4.8 12.9 0.00 0.00 0.00 65 1005.1
20210121180645 1 293 12.9 12.9 0.00 0.00 0.00 65 1005.1
20210121175646 1 270 0.0 17.7 0.00 0.00 0.00 66 1005.1
20210121174643 1 315 0.0 9.7 0.00 0.00 0.00 65 1005.1
20210121173640 1 315 0.0 16.1 0.00 0.00 0.00 65 1005.1
20210121172641 2 286 8.0 11.3 0.00 0.00 0.00 64 1004.7
20210121171138 2 0 0.0 20.9 0.00 0.00 0.00 64 1004.7
20210121170637 2 315 19.3 19.3 0.00 0.00 0.00 64 1004.7
20210121170136 2 324 6.4 11.3 0.00 0.00 0.00 64 1004.7
20210121165636 2 315 8.0 11.3 0.00 0.00 0.00 65 1004.7
20210121165135 2 270 0.0 14.5 0.00 0.00 0.00 65 1004.4
20210121164634 2 338 14.5 14.5 0.00 0.00 0.00 65 1004.4
20210121164135 2 338 6.4 14.5 0.00 0.00 0.00 67 1004.4
20210121163632 1 315 14.5 14.5 0.00 0.00 0.00 67 1004.7
20210121161632 1 270 11.3 11.3 0.00 0.00 0.00 68 1004.4
20210121161131 1 293 3.2 4.8 0.00 0.00 0.00 68 1004.4
20210121160630 0 293 0.0 12.9 0.00 0.00 0.00 69 1004.7
20210121155627 0 293 9.7 12.9 0.00 0.00 0.00 69 1004.4
20210121155126 0 315 1.6 11.3 0.00 0.00 0.00 70 1004.4
20210121154124 0 315 6.4 19.3 0.00 0.00 0.00 70 1004.4
20210121151122 0 270 3.2 11.3 0.00 0.00 0.00 70 1004.1
20210121150620 0 315 0.0 1.6 0.00 0.00 0.00 71 1003.7
20210121145120 -1 338 0.0 0.0 0.00 0.00 0.00 71 1003.4
20210121144119 -1 248 0.0 0.0 0.00 0.00 0.00 71 1003.4
20210121143624 -1 270 0.0 0.0 0.00 0.00 0.00 71 1003.4
20210121143118 -1 315 0.0 0.0 0.00 0.00 0.00 71 1003.4
20210121142616 -1 293 0.0 0.0 0.00 0.00 0.00 71 1003.4
20210121140611 -1 270 0.0 8.0 0.00 0.00 0.00 71 1003.0
20210121135110 -1 270 0.0 8.0 0.00 0.00 0.00 71 1002.7
20210121134109 -1 338 0.0 4.8 0.00 0.00 0.00 70 1002.4
20210121133609 -1 315 0.0 0.0 0.00 0.00 0.00 70 1002.7
20210121132106 -1 270 0.0 9.7 0.00 0.00 0.00 70 1002.4
20210121131604 -1 351 8.0 9.7 0.00 0.00 0.00 70 1002.4
20210121131103 -1 293 4.8 9.7 0.00 0.00 0.00 70 1002.4
20210121130602 -1 293 9.7 9.7 0.00 0.00 0.00 69 1002.4
20210121130103 -1 315 8.0 8.0 0.00 0.00 0.00 69 1002.4
20210121125102 -1 270 0.0 8.0 0.00 0.00 0.00 69 1002.4
20210121124600 -1 293 1.6 8.0 0.00 0.00 0.00 69 1002.4
20210121123558 -1 270 0.0 8.0 0.00 0.00 0.00 69 1002.0
20210121123057 -1 293 8.0 8.0 0.00 0.00 0.00 68 1002.0
20210121121112 0 293 6.4 11.3 0.00 0.00 0.00 68 1002.0
20210121120726 0 199 8.0 11.3 0.00 0.00 0.00 68 1002.0
20210121115555 0 293 0.0 0.0 0.00 0.00 0.00 67 1002.0
20210121115057 0 270 0.0 9.7 0.00 0.00 0.00 67 1002.0
20210121113550 0 270 0.0 12.9 0.00 0.00 0.00 67 1002.0
20210121113049 0 315 9.7 12.9 0.00 0.00 0.00 67 1002.0
20210121112049 0 270 0.0 1.6 0.00 0.00 0.00 67 1002.0
20210121111054 0 270 0.0 8.0 0.00 0.00 0.00 67 1001.7
20210121105043 0 293 6.4 6.4 0.00 0.00 0.00 67 1002.0
20210121104042 0 270 0.0 4.8 0.00 0.00 0.00 68 1001.7
20210121103541 0 293 0.0 4.8 0.00 0.00 0.00 68 1001.7
20210121102542 0 270 0.0 0.0 0.00 0.00 0.00 69 1002.0
20210121101539 0 248 4.8 4.8 0.00 0.00 0.00 69 1001.7
20210121101037 0 270 4.8 4.8 0.00 0.00 0.00 69 1002.0
20210121100047 0 270 0.0 11.3 0.00 0.00 0.00 69 1002.0
20210121095535 0 293 0.0 11.3 0.00 0.00 0.00 69 1002.4
20210121093535 0 293 6.4 6.4 0.00 0.00 0.00 69 1002.4
20210121092038 0 315 8.0 8.0 0.00 0.00 0.00 70 1002.4
20210121084541 0 270 3.2 3.2 0.00 0.00 0.00 70 1002.4
20210121084032 0 270 0.0 0.0 0.00 0.00 0.00 70 1002.4
20210121083526 0 270 0.0 0.0 0.00 0.00 0.00 70 1002.4
20210121083048 0 248 0.0 0.0 0.00 0.00 0.00 70 1002.0
20210121082524 0 270 0.0 0.0 0.00 0.00 0.00 70 1002.4
20210121082035 0 338 0.0 4.8 0.00 0.00 0.00 70 1002.4
20210121081022 0 270 0.0 0.0 0.00 0.00 0.00 70 1002.4
20210121080521 0 270 0.0 0.0 0.00 0.00 0.00 70 1002.4
20210121080033 0 293 0.0 0.0 0.00 0.00 0.00 70 1002.0
20210121074026 0 270 0.0 0.0 0.00 0.00 0.00 69 1002.0
20210121073040 0 270 0.0 0.0 0.00 0.00 0.00 69 1002.0
20210121071522 0 338 6.4 12.9 0.00 0.00 0.00 69 1002.0
20210121070041 0 293 0.0 0.0 0.00 0.00 0.00 68 1002.0
20210121065531 0 270 0.0 0.0 0.00 0.00 0.00 68 1002.0
20210121065025 0 270 0.0 0.0 0.00 0.00 0.00 68 1002.0
20210121064522 0 293 0.0 0.0 0.00 0.00 0.00 68 1002.0
20210121063526 0 338 0.0 4.8 0.00 0.00 0.00 68 1002.0
20210121063026 0 270 4.8 4.8 0.00 0.00 0.00 68 1002.0
20210121062546 0 293 0.0 0.0 0.00 0.00 0.00 69 1001.7
20210121062037 0 293 0.0 0.0 0.00 0.00 0.00 69 1002.0
20210121060212 0 270 0.0 0.0 0.00 0.00 0.00 68 1001.7
20210121055705 0 293 0.0 0.0 0.00 0.00 0.00 68 1001.7